{"data":{"norad_id":45344,"epoch":"2026-05-25T04:07:30.069120Z","epoch_age_seconds":63401,"freshness":"FRESH","line1":"1 45344U 20017A   26145.17187580 -.00000142  00000+0  00000+0 0  9991","line2":"2 45344   2.8202  47.0104 0002465  11.6850 325.9779  1.00271024 23026","mean_motion":1.00271024,"eccentricity":0.0002465,"inclination_deg":2.8202,"raan_deg":47.0104,"arg_perigee_deg":11.685,"mean_anomaly_deg":325.9779,"bstar":0,"rev_number":2302,"period_min":1436.1078031875,"perigee_km":35776.414639449,"apogee_km":35797.201957481,"semimajor_km":42164.945298465,"source":"CELESTRAK","updated_at":"2026-05-25T13:38:24.344387Z"}}